Location: Newark
(43.9494°N, 6.8108°E)
Time: 10:52:09
(UTC+00:00)

Envisat - Visible Passes

Search period start: 16 September 2019 00:00
Search period end: 26 September 2019 00:00
Orbit: 764 x 766 km, 98.1° (Epoch: 16 September)

Date Brightness Start Highest point End Pass type
(mag) Time Alt. Az. Time Alt. Az. Time Alt. Az.
16 Sep 5.1 18:33:17 10° SSW 18:37:41 29° W 18:42:07 10° NW visible
18 Sep 5.9 19:00:07 10° SW 19:03:26 17° W 19:06:46 10° NW visible
19 Sep 4.7 18:21:41 10° SSW 18:26:22 37° W 18:31:04 10° NNW visible
21 Sep 5.6 18:48:12 10° SW 18:52:04 22° W 18:55:57 10° NW visible
22 Sep 4.2 18:10:11 10° S 18:15:03 46° W 18:19:57 10° NNW visible
23 Sep 6.1 19:15:48 10° WSW 19:17:53 12° W 19:19:58 10° WNW visible
24 Sep 5.3 18:36:26 10° SSW 18:40:42 27° W 18:45:01 10° NW visible
25 Sep 3.7 17:58:46 10° S 18:03:45 59° W 18:08:47 10° NNW visible
